{"data":{"norad_id":63634,"intl_designator":"2025-083A","name":"STARLINK-33879","alt_names":[],"object_type":"PAYLOAD","status":"ACTIVE","operator":null,"country":"US","launch_date":"2025-04-25","launch_site_code":"AFETR","launch_vehicle":null,"mission":null,"orbit_class":"UNKNOWN","rcs_meters":null,"size_class":null,"mass_kg":null,"dimensions":null,"purposes":["comms"],"wikipedia_slug":null,"has_3d_model":false,"image_url":null,"decayed_at":null,"tle_current":{"epoch":"2026-05-25T03:09:32.258304Z","epoch_age_seconds":57601,"freshness":"FRESH","line1":"1 63634U 25083A   26145.13162336  .00012607  00000+0  46670-3 0  9994","line2":"2 63634  43.0065 293.8528 0003958 263.7447  96.2954 15.27588957 61758","mean_motion":15.27588957,"eccentricity":0.0003958,"inclination_deg":43.0065,"raan_deg":293.8528,"arg_perigee_deg":263.7447,"mean_anomaly_deg":96.2954,"bstar":0.0004667,"rev_number":6175,"period_min":94.266195981672,"perigee_km":480.30662884912,"apogee_km":485.73792253176,"semimajor_km":6861.1592756904,"source":"CELESTRAK","updated_at":"2026-05-25T13:38:20.051705Z"}}}